• In Deutschland
  • Länderverzeichnis
  • Für 7 Tage
  • Wassertemperatur
  • Satellitenkarten
  • Wetterkarte
  • Widgets
  • user-avatar
    Anmelden

    Stündliche Wetter Erfurt

    Heute, 17 Oktober, Dienstag

    Zeit Temperatur Niederschläge Wind Luftdruck Luftfeuchtigkeit
    00:00 +15°C° 0 mm 2 m/S 750 mmHg 84%
    01:00 +15°C° 0 mm 2 m/S 750 mmHg 83%
    02:00 +15°C° 0 mm 2 m/S 750 mmHg 82%
    03:00 +15°C° 0 mm 2 m/S 749 mmHg 82%
    04:00 +13°C° 0 mm 3 m/S 749 mmHg 82%
    05:00 +13°C° 0 mm 3 m/S 749 mmHg 82%
    06:00 +14°C° 0 mm 2 m/S 749 mmHg 82%
    07:00 +13°C° 0 mm 2 m/S 749 mmHg 80%
    08:00 +15°C° 0 mm 2 m/S 749 mmHg 73%
    09:00 +17°C° 0 mm 2 m/S 749 mmHg 67%
    10:00 +19°C° 0 mm 3 m/S 749 mmHg 61%
    11:00 +20°C° 0 mm 2 m/S 749 mmHg 58%
    12:00 +21°C° 0 mm 2 m/S 749 mmHg 55%
    13:00 +23°C° 0 mm 2 m/S 749 mmHg 52%
    14:00 +23°C° 0 mm 2 m/S 748 mmHg 56%
    15:00 +22°C° 0 mm 1 m/S 748 mmHg 59%
    16:00 +22°C° 0 mm 1 m/S 747 mmHg 63%
    17:00 +20°C° 0 mm 1 m/S 747 mmHg 69%
    18:00 +18°C° 0 mm 1 m/S 747 mmHg 75%
    19:00 +15°C° 0 mm 1 m/S 747 mmHg 81%
    20:00 +15°C° 0 mm 1 m/S 747 mmHg 82%
    21:00 +14°C° 0 mm 1 m/S 747 mmHg 83%
    22:00 +14°C° 0 mm 1 m/S 746 mmHg 83%
    23:00 +14°C° 0 mm 1 m/S 746 mmHg 84%

    Morgen, 18 Oktober, Mittwoch

    Zeit Temperatur Niederschläge Wind Luftdruck Luftfeuchtigkeit
    00:00 +13°C° 0 mm 1 m/S 746 mmHg 85%
    01:00 +13°C° 0 mm 1 m/S 746 mmHg 85%
    02:00 +13°C° 0 mm 1 m/S 746 mmHg 86%
    03:00 +12°C° 0 mm 1 m/S 745 mmHg 86%
    04:00 +12°C° 0 mm 1 m/S 745 mmHg 86%
    05:00 +12°C° 0 mm 1 m/S 745 mmHg 87%
    06:00 +12°C° 0 mm 1 m/S 745 mmHg 87%
    07:00 +12°C° 0 mm 1 m/S 745 mmHg 87%
    08:00 +14°C° 0 mm 1 m/S 744 mmHg 80%
    09:00 +16°C° 0 mm 1 m/S 744 mmHg 72%
    10:00 +18°C° 0 mm 1 m/S 744 mmHg 65%
    11:00 +20°C° 0 mm 1 m/S 744 mmHg 60%
    12:00 +21°C° 0 mm 1 m/S 744 mmHg 56%
    13:00 +21°C° 0 mm 2 m/S 744 mmHg 51%
    14:00 +22°C° 0 mm 1 m/S 743 mmHg 54%
    15:00 +21°C° 0 mm 1 m/S 743 mmHg 58%
    16:00 +21°C° 0 mm 1 m/S 743 mmHg 61%
    17:00 +19°C° 0 mm 1 m/S 743 mmHg 66%
    18:00 +16°C° 0 mm 1 m/S 743 mmHg 72%
    19:00 +14°C° 0 mm 1 m/S 743 mmHg 77%
    20:00 +14°C° 0 mm 1 m/S 743 mmHg 78%
    21:00 +13°C° 0 mm 1 m/S 743 mmHg 80%
    22:00 +13°C° 0 mm 1 m/S 743 mmHg 81%
    23:00 +12°C° 0 mm 1 m/S 743 mmHg 81%

    übermorgen, 19 Oktober, Donnerstag

    Zeit Temperatur Niederschläge Wind Luftdruck Luftfeuchtigkeit
    00:00 +12°C° 0 mm 1 m/S 743 mmHg 82%
    01:00 +12°C° 0 mm 1 m/S 743 mmHg 82%
    02:00 +11°C° 0 mm 1 m/S 743 mmHg 82%
    03:00 +11°C° 0 mm 1 m/S 743 mmHg 82%
    04:00 +11°C° 0 mm 1 m/S 743 mmHg 82%
    05:00 +11°C° 0 mm 1 m/S 743 mmHg 82%
    06:00 +11°C° 0 mm 1 m/S 743 mmHg 82%
    07:00 +11°C° 0 mm 1 m/S 743 mmHg 82%
    08:00 +13°C° 0 mm 1 m/S 743 mmHg 75%
    09:00 +15°C° 0 mm 2 m/S 743 mmHg 68%
    10:00 +17°C° 0 mm 2 m/S 743 mmHg 60%
    11:00 +18°C° 0 mm 2 m/S 743 mmHg 56%
    12:00 +20°C° 0 mm 2 m/S 743 mmHg 52%
    13:00 +21°C° 0 mm 2 m/S 743 mmHg 48%
    14:00 +20°C° 0 mm 2 m/S 743 mmHg 52%
    15:00 +21°C° 0 mm 1 m/S 743 mmHg 55%
    16:00 +20°C° 0 mm 1 m/S 742 mmHg 59%
    17:00 +19°C° 0 mm 1 m/S 742 mmHg 62%
    18:00 +16°C° 0 mm 1 m/S 743 mmHg 65%
    19:00 +15°C° 0 mm 1 m/S 743 mmHg 67%
    20:00 +15°C° 0 mm 1 m/S 743 mmHg 68%
    21:00 +14°C° 0 mm 1 m/S 743 mmHg 69%
    22:00 +14°C° 0 mm 1 m/S 743 mmHg 69%
    23:00 +14°C° 0 mm 1 m/S 743 mmHg 69%

    20 Oktober, Freitag

    Zeit Temperatur Niederschläge Wind Luftdruck Luftfeuchtigkeit
    00:00 +13°C° 0 mm 1 m/S 743 mmHg 70%
    01:00 +13°C° 0 mm 1 m/S 743 mmHg 70%
    02:00 +13°C° 0 mm 1 m/S 743 mmHg 70%
    03:00 +12°C° 0 mm 1 m/S 743 mmHg 70%
    04:00 +12°C° 0 mm 1 m/S 743 mmHg 70%
    05:00 +12°C° 0 mm 1 m/S 743 mmHg 70%
    06:00 +12°C° 0 mm 1 m/S 743 mmHg 69%
    07:00 +12°C° 0 mm 1 m/S 743 mmHg 69%
    08:00 +13°C° 0 mm 1 m/S 744 mmHg 65%
    09:00 +15°C° 0 mm 2 m/S 744 mmHg 61%
    10:00 +17°C° 0 mm 2 m/S 744 mmHg 58%
    11:00 +18°C° 0 mm 2 m/S 744 mmHg 56%
    12:00 +19°C° 0 mm 2 m/S 744 mmHg 54%
    13:00 +20°C° 0 mm 2 m/S 744 mmHg 52%
    14:00 +19°C° 0 mm 2 m/S 744 mmHg 56%
    15:00 +19°C° 0 mm 2 m/S 743 mmHg 60%
    16:00 +18°C° 0 mm 2 m/S 743 mmHg 65%
    17:00 +17°C° 0 mm 2 m/S 744 mmHg 69%
    18:00 +16°C° 0 mm 2 m/S 744 mmHg 73%
    19:00 +15°C° 0 mm 2 m/S 744 mmHg 77%
    20:00 +14°C° 0 mm 2 m/S 744 mmHg 79%
    21:00 +14°C° 0 mm 2 m/S 744 mmHg 82%
    22:00 +13°C° 0 mm 2 m/S 744 mmHg 84%
    23:00 +13°C° 0 mm 2 m/S 744 mmHg 84%

    21 Oktober, Samstag

    Zeit Temperatur Niederschläge Wind Luftdruck Luftfeuchtigkeit
    00:00 +13°C° 0 mm 2 m/S 744 mmHg 84%
    01:00 +13°C° 0 mm 2 m/S 744 mmHg 84%
    02:00 +13°C° 0 mm 2 m/S 744 mmHg 85%
    03:00 +13°C° 0 mm 2 m/S 744 mmHg 86%
    04:00 +13°C° 0 mm 2 m/S 744 mmHg 86%
    05:00 +13°C° 0 mm 2 m/S 744 mmHg 85%
    06:00 +13°C° 0 mm 2 m/S 744 mmHg 84%
    07:00 +13°C° 0 mm 2 m/S 744 mmHg 83%
    08:00 +14°C° 0 mm 3 m/S 744 mmHg 78%
    09:00 +16°C° 0 mm 3 m/S 744 mmHg 73%
    10:00 +18°C° 0 mm 4 m/S 744 mmHg 68%
    11:00 +19°C° 0 mm 4 m/S 744 mmHg 65%
    12:00 +20°C° 0 mm 4 m/S 743 mmHg 62%
    13:00 +20°C° 0 mm 4 m/S 743 mmHg 59%
    14:00 +20°C° 0,1 mm 4 m/S 743 mmHg 63%
    15:00 +19°C° 0,1 mm 3 m/S 743 mmHg 68%
    16:00 +18°C° 0,1 mm 3 m/S 743 mmHg 73%
    17:00 +17°C° 0,4 mm 3 m/S 743 mmHg 78%
    18:00 +16°C° 0,4 mm 3 m/S 743 mmHg 83%
    19:00 +14°C° 0,4 mm 3 m/S 744 mmHg 88%
    20:00 +14°C° 0,1 mm 3 m/S 744 mmHg 89%
    21:00 +14°C° 0,1 mm 3 m/S 744 mmHg 89%
    22:00 +14°C° 0,1 mm 4 m/S 744 mmHg 89%
    23:00 +13°C° 0,2 mm 3 m/S 744 mmHg 89%

    22 Oktober, Sonntag

    Zeit Temperatur Niederschläge Wind Luftdruck Luftfeuchtigkeit
    00:00 +13°C° 0,2 mm 3 m/S 745 mmHg 89%
    01:00 +12°C° 0,2 mm 3 m/S 745 mmHg 89%
    02:00 +12°C° 0 mm 3 m/S 745 mmHg 89%
    03:00 +12°C° 0 mm 4 m/S 745 mmHg 88%
    04:00 +12°C° 0 mm 4 m/S 745 mmHg 88%
    05:00 +11°C° 0,1 mm 4 m/S 745 mmHg 87%
    06:00 +11°C° 0,1 mm 4 m/S 744 mmHg 87%
    07:00 +11°C° 0,1 mm 4 m/S 744 mmHg 86%
    08:00 +11°C° 0 mm 4 m/S 745 mmHg 84%
    09:00 +10°C° 0 mm 5 m/S 745 mmHg 81%
    10:00 +10°C° 0 mm 5 m/S 745 mmHg 78%
    11:00 +10°C° 0 mm 6 m/S 745 mmHg 76%
    12:00 +11°C° 0 mm 6 m/S 745 mmHg 73%
    13:00 +11°C° 0 mm 6 m/S 745 mmHg 71%
    14:00 +10°C° 0 mm 5 m/S 745 mmHg 72%
    15:00 +10°C° 0 mm 5 m/S 745 mmHg 72%
    16:00 +11°C° 0 mm 4 m/S 746 mmHg 72%
    17:00 +10°C° 0 mm 4 m/S 746 mmHg 75%
    18:00 +8°C° 0 mm 4 m/S 746 mmHg 79%
    19:00 +7°C° 0 mm 4 m/S 747 mmHg 82%
    20:00 +7°C° 0 mm 4 m/S 747 mmHg 84%
    21:00 +7°C° 0 mm 4 m/S 747 mmHg 85%
    22:00 +6°C° 0 mm 4 m/S 748 mmHg 87%
    23:00 +6°C° 0 mm 4 m/S 748 mmHg 88%
    Mehr zeigen